STARLINK-31953, 59898

Orbit data source: Space-Track

STARLINK-31953, 59898 is a payload satellite owned by SpaceX/Seattle (US) in LEO that was launched on Tue, 28 May 2024 UTC via an FALCON 9 launch vehicle from the Air Force Eastern Test Range (AFETR). Payload-class satellites include a variety of spacecraft equipped with specific instruments for various scientific and technological missions. These include communications satellites like Starlink; space stations such as the ISS; scientific satellites like the Hubble; Earth observation satellites from companies like Planet Labs, Umbra, and HawkEye 360; GPS; miniature CubeSats for education and research; and military/defense satellites.

Loading next visibility...
Identifier
59898, 2024-100P
Orbit
LEO
Country
Flag of USUS
Related business
Manufacturer
SpaceX/Seattle
Mission
Operational Commercial Communications
Bus & Motor
STARLINK V2M, Unknown motor
Mass
730 kg wet, ~700 kg dry
Launch date (UTC)
2024-05-28 (1 year ago)
Launch vehicle
FALCON 9
Launch site
Air Force Eastern Test Range (AFETR)
Object type
Payload
Rocket body
Debris
Shape & HBR
Box + 2 Pan, 17.7 m
Radar Cross Section
33.884 m², Large (>1 m²)

Expand to show TLE details & history
Last TLE update: 22 hours ago

TLE from 22 hours ago
0 STARLINK-31953
1 59898U 24100P   25310.68079780  .00001368  00000-0  59226-4 0  9998
2 59898  43.0012  96.6743 0001124 240.1996 119.8744 15.27580100 82389
Epoch: 2025-11-06T16:20Z
TLE epoch observation values (Epoch: 2025-11-06T16:20:20.929Z)
Latitude
-0.00004°
Longitude
165.45143°
Altitude
483.208 km
Speed
7.625 km/s
True Right ascension
06h 26m 41s
True Declination
0° 00' 00"
Sunlit
Object was in full shadow at epoch
Visualization orbit readout
Latitude
Unknown
Longitude
Unknown
Altitude
Unknown
Speed
Unknown
Apparent Right ascension
Unknown
Apparent Declination
Unknown
Sunlit
N/A
Visualization observer readout
Local Sidereal Time
10:09:11
Azimuth
Unknown
Elevation
Unknown
Doppler factor
Unknown
Orbital elements
Apogee altitude
485.765 km
Perigee altitude
484.222 km
Semi-major axis
6,863.131 km
Eccentricity
0.00011
Inclination
43.0012°
RAAN
96.6743°
Arg. of periapsis
240.1996°
True anomaly
119.88557°
Mean anomaly
119.8744°
Eccentric anomaly
119.87998°
Mean motion
3.81733 °/min
Orbital period
94.31 mins
BSTAR
0.000059226
Loading maneuver chart data...
Computing Atmospheric mass density...
Loading historical data...
Loading historical data...
Loading historical data...
Loading historical data...
Loading historical data...
Loading historical data...
Loading historical data...

Documentation

Showing up to 5 results
|